This is the latest recevied weather packets stored in our database for station/object N3WGC-14. If no packets are shown the sender has not sent any weather packets the latest 10 day(s).
| Time | Temp. | Humidity | Pressure | Rain* | Wind** | Luminosity | Snow |
|---|---|---|---|---|---|---|---|
| 1777664079 | 17.78° C | 49% | 1012.6 hPa | 0 mm | - | - | - |
| 1777663779 | 17.78° C | 50% | 1012.6 hPa | 0 mm | - | - | - |
| 1777663479 | 17.78° C | 48% | 1012.7 hPa | 0 mm | - | - | - |
| 1777663179 | 17.78° C | 50% | 1012.6 hPa | 0 mm | - | - | - |
| 1777662879 | 17.22° C | 49% | 1012.7 hPa | 0 mm | - | - | - |
| 1777662578 | 17.78° C | 48% | 1012.8 hPa | 0 mm | - | - | - |
| 1777662278 | 17.22° C | 49% | 1013 hPa | 0 mm | - | - | - |
| 1777661978 | 17.22° C | 50% | 1013 hPa | 0 mm | - | - | - |
| 1777661678 | 16.67° C | 49% | 1013.1 hPa | 0 mm | - | - | - |
| 1777661378 | 16.67° C | 51% | 1013.1 hPa | 0 mm | - | - | - |
| 1777661078 | 16.67° C | 47% | 1013.2 hPa | 0 mm | - | - | - |
| 1777660777 | 16.67° C | 48% | 1013.4 hPa | 0 mm | - | - | - |
| 1777660477 | 16.11° C | 49% | 1013.5 hPa | 0 mm | - | - | - |
| 1777660177 | 16.11° C | 45% | 1013.5 hPa | 0 mm | - | - | - |
| 1777659877 | 15.56° C | 50% | 1013.7 hPa | 0 mm | - | - | - |
| 1777659577 | 15.56° C | 51% | 1013.9 hPa | 0 mm | - | - | - |
| 1777659277 | 15.56° C | 48% | 1014 hPa | 0 mm | - | - | - |
| 1777658976 | 15.56° C | 48% | 1014 hPa | 0 mm | - | - | - |
| 1777658676 | 15.56° C | 47% | 1014 hPa | 0 mm | - | - | - |
| 1777658376 | 15.56° C | 47% | 1014 hPa | 0 mm | - | - | - |
| 1777658076 | 15° C | 47% | 1014 hPa | 0 mm | - | - | - |
| 1777657776 | 15° C | 48% | 1014.1 hPa | 0 mm | - | - | - |
| 1777657476 | 15° C | 48% | 1014.2 hPa | 0 mm | - | - | - |
| 1777657176 | 15° C | 48% | 1014.1 hPa | 0 mm | - | - | - |
| 1777656875 | 15° C | 50% | 1014.2 hPa | 0 mm | - | - | - |
* Rain latest hour (hover to see other rain measurements)
** Current wind speed in m/s (hover to see current wind gust speed)